Voltar ao catálogo

ONEWEB-0375

AtivoComunicaçõesPO
NORAD 49301·PAYLOAD·🇬🇧 United Kingdom

Lançado Oct 14, 2021 de Vostochny Cosmodrome

Loading…

Próximas Passagens (próximas 24 horas)

TLE

AtualizadoSource: CelesTrak SupGP

Época: Sep 14, 2026, 15:39 UTC

1 49301C 21090Y   26257.65260833 -.00002876  00000+0 -70816-2 0  2579
2 49301  87.9137 256.5874 0002345 102.7415 295.7117 13.20774970    18

Acompanhe ONEWEB-0375 em tempo real com AllMySat

Download on the App Store